This demonstration page uses our WeatherBlox Daily Observations layout. Learn more.

40.92945, -100.16068

Hourly Observations for March 31, 2018

Temp ( °F °C ) Dew Point ( °F °C ) Humidity (%) Winds ( mph kmh ) Pressure ( in mb ) Visibility ( mi km ) Precip ( " mm )
12:15 am 00:15 Clear 53 11.5 40 4.6 63 63 SW 7 11 29.8 1009 10 16.0934 0 0
12:35 am 00:35 Clear 53 11.5 41 5 65 65 SW 15 24 29.77 1008 10 16.0934 0 0
12:55 am 00:55 Clear 54 12.3 41 5 61 61 SW 23 37 29.77 1008 10 16.0934 0 0
1:15 am 01:15 Clear 54 12.3 41 5 61 61 SW 22 35 29.77 1008 10 16.0934 0 0
1:35 am 01:35 Clear 54 12.1 41 5 62 62 SW 23 37 29.77 1008 10 16.0934 0 0
1:55 am 01:55 Clear 53 11.8 41 4.8 62 62 SW 21 33 29.77 1008 10 16.0934 0 0
2:15 am 02:15 Clear 53 11.7 40 4.7 62 62 SW 23 37 29.77 1008 10 16.0934 0 0
2:35 am 02:35 Clear 53 11.7 39 3.9 59 59 W 17 28 29.8 1009 10 16.0934 0 0
2:55 am 02:55 Clear 54 12.3 35 1.8 49 49 NW 24 39 29.83 1010 10 16.0934 0 0
3:15 am 03:15 Clear 50 10.1 34 1.3 55 55 N 31 50 29.88 1012 10 16.0934 0 0
3:35 am 03:35 Clear 49 9.2 35 1.5 59 59 N 15 24 29.88 1012 10 16.0934 0 0
3:55 am 03:55 Clear 47 8.5 35 1.6 62 62 NNW 13 20 29.94 1014 10 16.0934 0 0
4:15 am 04:15 Clear 45 7.1 34 1.2 66 66 NNW 10 17 29.94 1014 10 16.0934 0 0
4:35 am 04:35 Clear 44 6.7 35 1.4 69 69 NNW 9 15 29.94 1014 10 16.0934 0 0
4:55 am 04:55 Clear 43 6 34 1 71 71 NW 10 17 30 1016 10 16.0934 0 0
5:15 am 05:15 Clear 44 6.5 34 1.2 69 69 NNW 17 28 30 1016 10 16.0934 0 0
5:35 am 05:35 Clear 43 6.2 34 1.2 71 71 NNW 10 17 30.03 1017 10 16.0934 0 0
5:55 am 05:55 Clear 41 5.2 34 1 75 75 N 17 28 30.06 1018 10 16.0934 0 0
6:15 am 06:15 Mostly Cloudy 43 6.1 35 1.5 73 73 NNW 18 30 30.09 1019 10 16.0934 0 0
6:35 am 06:35 Cloudy 42 5.7 34 1 72 72 NNW 14 22 30.09 1019 10 16.0934 0 0
6:55 am 06:55 Partly Cloudy 42 5.3 32 0 69 69 N 26 43 30.09 1019 10 16.0934 0 0
7:15 am 07:15 Clear 38 3.4 29 -1.6 70 70 NNW 25 41 30.12 1020 10 16.0934 0 0
7:35 am 07:35 Partly Cloudy 37 2.6 29 -1.9 73 73 N 22 35 30.15 1021 10 16.0934 0 0
7:55 am 07:55 Cloudy 36 2.3 28 -2.3 72 72 N 24 39 30.18 1022 10 16.0934 0 0
8:15 am 08:15 Cloudy 35 1.8 28 -2.3 75 75 N 30 48 30.18 1022 10 16.0934 0 0
8:35 am 08:35 Cloudy 35 1.6 27 -2.6 74 74 N 25 41 30.18 1022 10 16.0934 0 0
8:55 am 08:55 Cloudy 33 0.5 27 -2.9 78 78 N 25 41 30.24 1024 10 16.0934 0 0
9:15 am 09:15 Cloudy 32 -0.1 25 -4.1 75 75 N 29 46 30.27 1025 10 16.0934 0 0
9:35 am 09:35 Cloudy 31 -0.6 24 -4.5 75 75 N 23 37 30.27 1025 10 16.0934 0 0
9:55 am 09:55 Cloudy 30 -1 22 -5.5 72 72 N 24 39 30.33 1027 10 16.0934 0 0
10:15 am 10:15 Cloudy 30 -1.2 22 -5.8 71 71 N 28 44 30.33 1027 10 16.0934 0 0
10:35 am 10:35 Cloudy 30 -0.9 22 -5.8 70 70 N 24 39 30.33 1027 10 16.0934 0 0
10:55 am 10:55 Cloudy 29 -1.7 20 -6.5 70 70 N 23 37 30.36 1028 10 16.0934 0 0
11:15 am 11:15 Cloudy 29 -1.5 20 -6.7 68 68 N 23 37 30.36 1028 10 16.0934 0 0
11:35 am 11:35 Cloudy 30 -1.2 20 -6.8 66 66 N 18 30 30.39 1029 10 16.0934 0 0
11:55 am 11:55 Cloudy 29 -1.5 19 -7.2 66 66 NNE 22 35 30.39 1029 10 16.0934 0 0
12:15 pm 12:15 Cloudy 29 -1.6 18 -7.6 64 64 N 21 33 30.39 1029 10 16.0934 0 0
12:35 pm 12:35 Cloudy 30 -1.2 19 -7.5 63 63 N 20 31 30.42 1030 10 16.0934 0 0
12:55 pm 12:55 Cloudy 31 -0.7 18 -7.6 60 60 N 21 33 30.42 1030 10 16.0934 0 0
1:15 pm 13:15 Cloudy 32 0 18 -7.8 56 56 N 21 33 30.42 1030 7 11.26538 0 0
1:35 pm 13:35 Mostly Cloudy 32 0.2 18 -8 54 54 N 17 28 30.42 1030 10 16.0934 0 0
1:55 pm 13:55 Partly Cloudy 33 0.7 17 -8.5 51 51 N 16 26 30.39 1029 7 11.26538 0 0
2:15 pm 14:15 Partly Cloudy 34 1 16 -9.1 47 47 N 18 30 30.39 1029 10 16.0934 0 0
2:35 pm 14:35 Mostly Cloudy 35 1.4 16 -9.1 46 46 NNE 17 28 30.36 1028 10 16.0934 0 0
2:55 pm 14:55 Partly Cloudy 35 1.8 16 -9 45 45 N 15 24 30.36 1028 10 16.0934 0 0
3:15 pm 15:15 Sunny 35 1.8 16 -9.1 45 45 N 18 30 30.36 1028 10 16.0934 0 0
3:35 pm 15:35 Sunny 36 2 15 -9.5 43 43 NNE 15 24 30.36 1028 10 16.0934 0 0
3:55 pm 15:55 Mostly Cloudy 36 2.2 15 -9.7 41 41 NNE 15 24 30.36 1028 10 16.0934 0 0
4:15 pm 16:15 Cloudy 35 1.9 15 -9.7 42 42 N 14 22 30.36 1028 10 16.0934 0 0
4:35 pm 16:35 Cloudy 36 2.4 15 -9.7 41 41 N 15 24 30.33 1027 10 16.0934 0 0
4:55 pm 16:55 Cloudy 38 3.1 15 -9.6 39 39 N 14 22 30.3 1026 10 16.0934 0 0
5:15 pm 17:15 Cloudy 37 2.6 14 -9.9 40 40 N 16 26 30.36 1028 10 16.0934 0 0
5:35 pm 17:35 Mostly Cloudy 36 2 14 -10.1 41 41 NNE 18 30 30.33 1027 10 16.0934 0 0
5:55 pm 17:55 Partly Cloudy 37 2.6 14 -9.8 40 40 NNE 15 24 30.36 1028 10 16.0934 0 0
6:15 pm 18:15 Mostly Cloudy 35 1.9 13 -10.4 40 40 NNE 18 30 30.36 1028 10 16.0934 0 0
6:35 pm 18:35 Mostly Cloudy 36 2 13 -10.3 40 40 NNE 15 24 30.36 1028 10 16.0934 0 0
7:15 pm 19:15 Partly Cloudy 33 0.7 13 -10.3 44 44 NNE 16 26 30.36 1028 10 16.0934 0 0
7:35 pm 19:35 Mostly Cloudy 33 0.5 13 -10.5 44 44 NNE 15 24 30.36 1028 10 16.0934 0 0
7:55 pm 19:55 Mostly Cloudy 32 0.1 13 -10.7 44 44 NNE 14 22 30.42 1030 10 16.0934 0 0
8:15 pm 20:15 Cloudy 32 0 12 -10.9 44 44 NE 12 19 30.42 1030 10 16.0934 0 0
8:35 pm 20:35 Cloudy 32 0 12 -11 44 44 NNE 10 17 30.42 1030 10 16.0934 0 0
8:55 pm 20:55 Cloudy 32 -0.2 11 -11.4 43 43 NNE 14 22 30.42 1030 10 16.0934 0 0
9:15 pm 21:15 Cloudy 31 -0.5 11 -11.8 43 43 NE 12 19 30.42 1030 10 16.0934 0 0
9:35 pm 21:35 Cloudy 31 -0.5 11 -11.8 43 43 NE 10 17 30.42 1030 10 16.0934 0 0
9:55 pm 21:55 Cloudy 30 -1 9 -12.8 41 41 NNE 10 17 30.42 1030 10 16.0934 0 0
10:15 pm 22:15 Cloudy 30 -1 10 -12.5 42 42 NE 8 13 30.45 1031 10 16.0934 0 0
10:35 pm 22:35 Cloudy 30 -1 9 -12.7 41 41 NNE 6 9 30.45 1031 10 16.0934 0 0
10:55 pm 22:55 Cloudy 30 -1 9 -13 40 40 NNE 5 7 30.48 1032 10 16.0934 0 0
11:15 pm 23:15 Cloudy 29 -1.6 12 -11.1 49 49 NNE 9 15 30.48 1032 10 16.0934 0 0
11:35 pm 23:35 Cloudy 29 -1.9 14 -9.8 55 55 N 9 15 30.48 1032 10 16.0934 0 0
11:55 pm 23:55 Cloudy with Light Snow 26 -3.1 19 -7.2 74 74 N 12 19 30.5 1033 3 4.82802 0 0

Powered by AerisWeather